View from above orbital plane
|
View from above satellite
|
Ground track
|
The orbit data is extracted from the following two-line orbital elements,
1 25544U 98067A 21018.53529845 .00016717 00000-0 10270-3 0 9033
2 25544 51.6428 2.9257 0000416 319.8333 40.2787 15.49317629 25398
Epoch (UTC): | 18 January 2021 12:50:49 |
Eccentricity: | 0.0000416 |
inclination: | 51.6428° |
perigee height: | 418 km |
apogee height: | 419 km |
right ascension of ascending node: | 2.9257° |
argument of perigee: | 319.8333° |
revolutions per day: | 15.49317629 |
mean anomaly at epoch: | 40.2787° |
orbit number at epoch: | 2539 |
The dashed part of the orbit path shows where the satellite is in the earth's shadow,
|
|